sat.trackr.live / text

‹ back to catalog

AJISAI (EGS)

NORAD 16908 · 1986-061A

PAYLOAD ACTIVE UNKNOWN

§ Identity

Operator
Country
JPN
Launch date
1986-08-12
Launch site
TANSC
Launch vehicle
Mass (kg)
RCS (m²)
4.23

Purposes: science

External: N2YO · Heavens-Above · Gunter

§ Orbital elements

Epoch: 2026-09-20T04:39:52.081056Z

Period
115.71 min
Inclination
50.0079°
Eccentricity
0.0011359
Mean motion
12.44517426 rev/d
Perigee alt
1,478.6 km
Apogee alt
1,496.4 km
Semi-major
7,865.6 km
B*
6.8458e-5
RAAN
215.2503°
Arg perigee
62.0631°
Mean anomaly
257.8383°
Rev number
49,221

§ Raw data

AJISAI (EGS)1 16908U 86061A   26263.19435279 -.00000088  00000+0  68458-4 0  99952 16908  50.0079 215.2503 0011359  62.0631 257.8383 12.44517426492212

JSON: /api/v1/satellites/16908 · /tle

For live sub-satellite position, see the globe view (requires WebGL).

§ Visibility from observer

Set your observer location to see the next 7 days of passes ≥ 10°. The values pass through the URL so the page stays shareable.

No JS? Fill the form by hand. The geolocation button needs JavaScript.